カタログに戻る

OPS 9442 (DSCS 2-12) DEB

運用中MEO
NORAD 59989·DEBRIS·🇺🇸 United States

打ち上げ Dec 14, 1978 から Cape Canaveral Space Force Station

Loading…

次のパス (今後24時間)

TLE

最新Source: Space-Track

元期: Sep 13, 2026, 21:39 UTC

1 59989U 78113E   26256.90231086 -.00000307  00000-0  00000+0 0  9990
2 59989   7.9815 301.7824 0168697  89.4526 272.3997  0.98458021 46093

AllMySatでOPS 9442 (DSCS 2-12) DEBをリアルタイム追跡

Download on the App Store